Lexington Weather

Lexington, Massachusetts, USA

46°F
10/26/2020 5:52am 
  • Lexington Conditions: Overcast
  • Temperature: 46.0°F / 7.8°CWarmer 0.9°F than last hour.
  • Dew Point: 40.8°FIncreased 1.1°Fsince last hour.
  • Relative Humidity: 82%Increased 1.0% since last hour.
  • Wind: Wind from S S Calm, 10-min avg: 1 mph, gust: 2 mph
  • Barometer: 30.27 in Steady
  • Visibility: 10 miles
  • Rain Today: 0.00 in
  •   

Regional Weather Roundup
for Boston / Norton, MA

        
000
ASUS41 KBOX 231704
RWRBOX

REGIONAL WEATHER ROUNDUP
NATIONAL WEATHER SERVICE BOSTON/NORTON MA
100 PM EDT FRI OCT 23 2020

NOTE:  "FAIR" INDICATES FEW OR NO CLOUDS BELOW 12,000 FEET WITH NO 
SIGNIFICANT WEATHER AND/OR OBSTRUCTIONS TO VISIBILITY.

MAZALL-231800-
EASTERN MASSACHUSETTS
  
CITY           SKY/WX    TMP DP  RH WIND       PRES   REMARKS
BOSTON         MOSUNNY   61  54  77 E9        30.22F                  
BEVERLY        CLOUDY    65  47  52 SE7       30.21F                  
LAWRENCE       CLOUDY    66  52  60 E6        30.23F                  
BEDFORD        PTSUNNY   65  56  72 CALM      30.20F                  
BLUE HILL        N/A     67  55  65 VRB6      30.21F                  
NORWOOD        MOSUNNY   68  56  65 CALM      30.21F                  
MARSHFIELD     SUNNY     66  55  68 NE8       30.21F                  
PLYMOUTH       SUNNY     69  52  54 NW3       30.20F                  
TAUNTON        SUNNY     69  56  62 CALM      30.20F                  
NEW BEDFORD    SUNNY     69  57  65 VRB5      30.20F                  
$$

MAZALL-231800-
CAPE COD AND THE ISLANDS
  
CITY           SKY/WX    TMP DP  RH WIND       PRES   REMARKS
FALMOUTH       NOT AVBL                                               
HYANNIS        SUNNY     69  55  60 CALM      30.19F                  
CHATHAM        SUNNY     65  52  62 NE6       30.21F                  
PROVINCETOWN   SUNNY     62  55  77 N9        30.22F                  
NANTUCKET      SUNNY     66  46  48 N10       30.20F                  
MARTHAS VNYRD  SUNNY     69  52  54 E8        30.20F                  
$$
 
MAZALL-231800-
CENTRAL AND WESTERN MASSACHUSETTS
  
CITY           SKY/WX    TMP DP  RH WIND       PRES   REMARKS
WORCESTER      CLOUDY    61  56  83 S5        30.21F                  
FITCHBURG      CLOUDY    64  57  78 S6        30.21F                  
ORANGE         CLOUDY    63  60  90 SW6       30.20F                  
SPRINGFIELD    CLOUDY    64  63  97 SW3       30.18F                  
WESTFIELD      CLOUDY    65  62  90 S8        30.19F                  
NORTH ADAMS    MOSUNNY   73  58  59 SW12G23   30.14F                  
$$
 
RIZALL-231800-
RHODE ISLAND
  
CITY           SKY/WX    TMP DP  RH WIND       PRES   REMARKS
PROVIDENCE     CLOUDY    60  56  86 VRB3      30.23F                  
NEWPORT        MOSUNNY   62  57  83 NW7       30.21F                  
BLOCK ISLAND   CLOUDY    60  56  86 VRB3      30.22F                  
SMITHFIELD     MOSUNNY   65  57  75 VRB5        N/A                   
WESTERLY       CLOUDY    61  56  83 CALM      30.22F                  
$$
 
CTZALL-231800-
CONNECTICUT
  
CITY           SKY/WX    TMP DP  RH WIND       PRES   REMARKS
BRADLEY INTL   CLOUDY    66  62  87 S6        30.19F                  
HARTFORD       CLOUDY    65  60  84 S8        30.20F                  
BRIDGEPORT     CLOUDY    64  62  93 E9        30.20F                  
DANBURY        CLOUDY    64  61  90 SE7       30.21F                  
GROTON         CLOUDY    61  57  87 CALM      30.22F                  
NEW HAVEN      CLOUDY    65  62  90 E9        30.21F FOG              
CHESTER        CLOUDY    61  61 100 CALM      30.22F FOG              
MERIDEN        CLOUDY    63  58  83 S7        30.21F                  
WILLIMANTIC    CLOUDY    64  58  80 S5        30.21F                  
OXFORD         CLOUDY    62  62 100 S7        30.22F                  
$$

MEZ002-015-021-024-NHZ003-005-008-011-012-014-VTZ005-008-231800-
NORTHERN NEW ENGLAND
  
CITY           SKY/WX    TMP DP  RH WIND       PRES   REMARKS
PORTLAND ME    CLOUDY    57  50  77 E7        30.24F                  
BANGOR ME      CLOUDY    58  45  62 S7        30.24F                  
CONCORD NH     CLOUDY    60  52  74 VRB3      30.21F                  
MANCHESTER NH  CLOUDY    65  53  65 SW5       30.19F                  
NASHUA NH      CLOUDY    65  58  78 E3        30.21F                  
PORTSMOUTH NH  CLOUDY    60  50  70 SE7       30.21F                  
JAFFREY NH     CLOUDY    60  56  86 S7        30.21F                  
KEENE NH       CLOUDY    64  58  80 SW8       30.19F                  
BURLINGTON VT  PTSUNNY   71  58  63 S18G32    30.06F                  
MT. WASHINGTON FOG       46  46 100 W43G52      N/A  VSB 1/16         
$$

NYZ052-076-231800-
EASTERN NEW YORK
  
CITY           SKY/WX    TMP DP  RH WIND       PRES   REMARKS
ALBANY         MOSUNNY   71  60  68 S15G26    30.11F                  
NEW YORK CITY  CLOUDY    70  60  70 S8        30.18F                  
$$
 
ANZALL-231800-
MARINE OBSERVATIONS
  
STATION/POSITION TIME  TEMP    WIND        PRES    VSBY  WAVE
                       AIR SEA DIR/SP/G                  HT/PER
                 (UTC) (F)     (DEG/KT/KT) (MB)    (MI)  (FT/S)
BOSTON BUOY      1650   59 60   60/  4/  6 1022.5F         4/12
BUZZARDS BAY     1600           20/  2/  2 1024.9F
NANTUCKET SOUND  1640      62   80/  4/  6   N/A
MASS BAY-STELLWA 1604   58 58   30/  4/  6 1024.0F  1 7/8  4/11
ISLE OF SHOALS   1600   56      60/  7/  7 1024.1F
S OF BLOCK IS    1626      63                N/A           6/13
$$

......................KEY.........................
  SKY/WX - SKY CONDITION/PRESENT WEATHER
  TMP    - TEMPERATURE IN FAHRENHEIT
  DWPT   - DEWPOINT IN FAHRENHEIT
  RH     - RELATIVE HUMIDITY IN PERCENT
  WIND   - DIRECTION AND SPEED IN MPH
  PRES   - MEAN SEA LEVEL PRESSURE IN INCHES OF HG
  WCI    - WIND CHILL INDEX
  VSB    - VISIBILITY IN MILES
  HX     - HEAT INDEX
  TC     - TEMPERATURE IN CELSIUS
  VRB    - VARIABLE WIND DIRECTION
  N/A    - NOT AVAILABLE
  
      

Other recent Regional Weather Roundups

Mon Oct 26, 5:04am

Mon Oct 26, 4:04am

Mon Oct 26, 3:04am

Mon Oct 26, 2:04am

Mon Oct 26, 1:04am

Mon Oct 26, 12:04am

Sun Oct 25, 11:05pm

Sun Oct 25, 10:04pm

Sun Oct 25, 9:04pm

Sun Oct 25, 8:04pm

Sun Oct 25, 7:04pm

Sun Oct 25, 6:04pm

Sun Oct 25, 5:04pm

Sun Oct 25, 4:05pm

Sun Oct 25, 3:04pm

Sun Oct 25, 2:04pm

Sun Oct 25, 1:04pm

Sun Oct 25, 12:04pm

Sun Oct 25, 11:04am

Sun Oct 25, 10:04am

Sun Oct 25, 9:04am

Sun Oct 25, 8:04am

Sun Oct 25, 7:04am

Sun Oct 25, 6:04am

Sun Oct 25, 5:04am

Sun Oct 25, 4:04am

Sun Oct 25, 3:04am

Sun Oct 25, 2:04am

Sun Oct 25, 1:05am

Sun Oct 25, 12:04am

Sat Oct 24, 11:04pm

Sat Oct 24, 10:04pm

Sat Oct 24, 9:04pm

Sat Oct 24, 8:04pm

Sat Oct 24, 7:04pm

Sat Oct 24, 6:04pm

Sat Oct 24, 5:05pm

Sat Oct 24, 4:04pm

Sat Oct 24, 3:04pm

Sat Oct 24, 2:04pm

Sat Oct 24, 1:05pm

Sat Oct 24, 12:04pm

Sat Oct 24, 11:05am

Sat Oct 24, 10:05am

Sat Oct 24, 9:04am

Sat Oct 24, 8:04am

Sat Oct 24, 7:04am

Sat Oct 24, 6:04am

Sat Oct 24, 5:04am

Sat Oct 24, 4:04am

Sat Oct 24, 3:04am

Sat Oct 24, 2:04am

Sat Oct 24, 1:05am

Sat Oct 24, 12:04am

Fri Oct 23, 11:04pm

Fri Oct 23, 10:04pm

Fri Oct 23, 9:04pm

Fri Oct 23, 8:05pm

Fri Oct 23, 7:04pm

Fri Oct 23, 6:04pm

Fri Oct 23, 5:05pm

Fri Oct 23, 4:04pm

Fri Oct 23, 3:04pm

Fri Oct 23, 2:05pm

Fri Oct 23, 12:04pm

Fri Oct 23, 11:04am

Fri Oct 23, 10:04am

Fri Oct 23, 9:04am

Fri Oct 23, 8:04am

Fri Oct 23, 7:04am

Fri Oct 23, 6:04am

Fri Oct 23, 5:04am

Fri Oct 23, 4:04am

Fri Oct 23, 3:04am

Fri Oct 23, 2:04am

Fri Oct 23, 1:04am

Fri Oct 23, 12:04am

Thu Oct 22, 11:04pm

Thu Oct 22, 10:04pm

Thu Oct 22, 9:05pm

Thu Oct 22, 8:04pm

Thu Oct 22, 7:05pm

Thu Oct 22, 6:04pm

Thu Oct 22, 5:04pm

Thu Oct 22, 4:05pm

Thu Oct 22, 3:04pm

Thu Oct 22, 2:05pm

Thu Oct 22, 1:04pm

Thu Oct 22, 12:04pm

Thu Oct 22, 11:04am

Thu Oct 22, 10:05am

Thu Oct 22, 9:04am

Thu Oct 22, 8:05am

Thu Oct 22, 7:04am

Thu Oct 22, 6:04am

Thu Oct 22, 5:04am

Thu Oct 22, 4:04am

Thu Oct 22, 3:04am

Thu Oct 22, 2:04am

Thu Oct 22, 1:04am

Thu Oct 22, 12:04am

Wed Oct 21, 11:05pm

Wed Oct 21, 10:04pm

Wed Oct 21, 9:04pm

Wed Oct 21, 8:04pm

Wed Oct 21, 7:04pm

Wed Oct 21, 6:04pm

Wed Oct 21, 5:05pm

Wed Oct 21, 4:04pm

Wed Oct 21, 3:04pm

Wed Oct 21, 2:05pm

Wed Oct 21, 1:04pm

Wed Oct 21, 12:04pm

Wed Oct 21, 11:04am

Wed Oct 21, 10:04am

Wed Oct 21, 9:04am

Wed Oct 21, 8:04am

Wed Oct 21, 7:04am

Wed Oct 21, 6:04am

Wed Oct 21, 5:04am

Wed Oct 21, 4:04am

Wed Oct 21, 3:04am

Wed Oct 21, 2:04am

Wed Oct 21, 1:04am

Wed Oct 21, 12:04am

Tue Oct 20, 11:05pm

Tue Oct 20, 10:04pm

Tue Oct 20, 9:04pm

Tue Oct 20, 8:05pm

Tue Oct 20, 7:04pm

Tue Oct 20, 6:04pm

Tue Oct 20, 5:05pm

Tue Oct 20, 4:04pm

Tue Oct 20, 3:05pm

Tue Oct 20, 2:07pm

Tue Oct 20, 1:04pm

Tue Oct 20, 12:04pm

Tue Oct 20, 11:04am

Tue Oct 20, 10:05am

Tue Oct 20, 9:04am

Tue Oct 20, 8:04am

Tue Oct 20, 7:04am

Tue Oct 20, 6:04am

Tue Oct 20, 5:04am

Tue Oct 20, 4:04am

Tue Oct 20, 3:04am

Tue Oct 20, 2:04am

Tue Oct 20, 1:04am

Tue Oct 20, 12:04am

Mon Oct 19, 11:04pm

Mon Oct 19, 10:04pm

Mon Oct 19, 9:04pm

Mon Oct 19, 8:04pm

Mon Oct 19, 7:04pm

Mon Oct 19, 6:04pm

Mon Oct 19, 5:04pm

Mon Oct 19, 4:04pm

Mon Oct 19, 3:04pm

Mon Oct 19, 2:04pm

Mon Oct 19, 1:05pm

Mon Oct 19, 12:04pm

Mon Oct 19, 11:04am

Mon Oct 19, 10:04am

Mon Oct 19, 9:04am

Mon Oct 19, 8:04am

Mon Oct 19, 7:04am

Mon Oct 19, 6:04am

Mon Oct 19, 5:04am

Meta data:

ID: dbdf8b2f-1991-4376-91a3-790fab00b7e5
Link: https://api.weather.gov/products/dbdf8b2f-1991-4376-91a3-790fab00b7e5